カタログに戻る

FENGYUN 1C DEB

運用中SSO
NORAD 36680·DEBRIS·🇨🇳 China

打ち上げ May 10, 1999 から Taiyuan Satellite Launch Center

Loading…

次のパス (今後24時間)

TLE

最新Source: Space-Track

元期: Sep 14, 2026, 17:52 UTC

1 36680U 99025DZA 26257.74472205  .00000464  00000-0  20307-3 0  9990
2 36680  98.5689 245.5836 0188011 171.2281   3.7178 14.19200855682113

AllMySatでFENGYUN 1C DEBをリアルタイム追跡

Download on the App Store